Find Starlink 38332

NORAD ID: 100444 Int'l Des: 2026-193 Owner: SPXS Country: US Constellation: starlink operational

Current View

Loading 3D Globe...

About Starlink 38332

Starlink 38332 (NORAD 100444) is a starlink constellation satellite launched Aug 22, 2026 by SPXS of US. with a mass of 575.00 kg.

Upcoming Passes

Passes for default location (London). Set your location on the main map for personalized predictions.

Altitude History

Loading altitude history...

Two-Line Element Set

1 A0444U 26193M 26262.90456336 -.01110346 00000-0 -31570-1 0 9992
2 A0444 70.0005 75.8882 0002797 265.0461 95.0400 15.38741775 5172
Epoch: Sep 19, 2026 • Age: 16 hours

Current Status

Altitude 463.9 km
Apogee / Perigee N/A
Velocity 7.64 km/s
Sub-Earth Point 52.85°N, 18.35°E
Launch Date Aug 22, 2026
Age 29 days
Type internet

Technical Details

Classification Payload
Mass 575.00 kg
Dry Mass 530.00 kg
Length 0.30 m
Span 29.00 m
Shape ? Box + pan
Manufacturer SPXS
Bus Type Starlink V2MO
Phase Status In Orbit
Owner/State SPXS/US

Most Searched